{"data":{"norad_id":67994,"epoch":"2026-09-20T02:01:46.689888Z","epoch_age_seconds":95514,"freshness":"FRESH","line1":"1 67994U 26039J   26263.08456817  .00015137  00000+0  55834-3 0  9997","line2":"2 67994  43.0038  31.0848 0003253 268.0923  91.9556 15.27583811 31439","mean_motion":15.27583811,"eccentricity":0.0003253,"inclination_deg":43.0038,"raan_deg":31.0848,"arg_perigee_deg":268.0923,"mean_anomaly_deg":91.9556,"bstar":0.00055834,"rev_number":3143,"period_min":94.26651353796,"perigee_km":480.80574443349,"apogee_km":485.26962468326,"semimajor_km":6861.1746845584,"source":"CELESTRAK","updated_at":"2026-09-20T09:00:43.736205Z"}}